EN

Hourly Weather Dzikowa

Today, 26 October, Monday

Time Temperature Precipitation Wind Pressure Humidity
00:00 +10°C° 0 mm 2 mps 741 mmHg 88%
01:00 +10°C° 0 mm 2 mps 740 mmHg 89%
02:00 +10°C° 0 mm 2 mps 740 mmHg 89%
03:00 +10°C° 0 mm 2 mps 740 mmHg 90%
04:00 +10°C° 0 mm 2 mps 740 mmHg 91%
05:00 +10°C° 0 mm 2 mps 739 mmHg 89%
06:00 +10°C° 0 mm 2 mps 739 mmHg 88%
07:00 +12°C° 0 mm 2 mps 739 mmHg 87%
08:00 +13°C° 0 mm 2 mps 739 mmHg 84%
09:00 +14°C° 0 mm 2 mps 739 mmHg 80%
10:00 +14°C° 0 mm 3 mps 739 mmHg 77%
11:00 +14°C° 0 mm 2 mps 739 mmHg 78%
12:00 +14°C° 0 mm 2 mps 739 mmHg 80%
13:00 +14°C° 0 mm 2 mps 739 mmHg 82%
14:00 +14°C° 0.1 mm 2 mps 739 mmHg 81%
15:00 +14°C° 0.1 mm 2 mps 738 mmHg 81%
16:00 +14°C° 0.1 mm 2 mps 738 mmHg 81%
17:00 +13°C° 0 mm 2 mps 739 mmHg 84%
18:00 +13°C° 0 mm 2 mps 739 mmHg 86%
19:00 +12°C° 0 mm 2 mps 739 mmHg 89%
20:00 +12°C° 0 mm 2 mps 739 mmHg 91%
21:00 +11°C° 0 mm 1 mps 740 mmHg 93%
22:00 +11°C° 0 mm 1 mps 740 mmHg 94%
23:00 +11°C° 0 mm 1 mps 740 mmHg 94%

Tomorrow, 27 October, Tuesday

Time Temperature Precipitation Wind Pressure Humidity
00:00 +11°C° 0 mm 1 mps 740 mmHg 94%
01:00 +11°C° 0 mm 1 mps 740 mmHg 94%
02:00 +11°C° 0.1 mm 1 mps 740 mmHg 94%
03:00 +11°C° 0.1 mm 1 mps 740 mmHg 95%
04:00 +11°C° 0.1 mm 1 mps 740 mmHg 95%
05:00 +11°C° 0.6 mm 1 mps 740 mmHg 95%
06:00 +11°C° 0.6 mm 1 mps 740 mmHg 95%
07:00 +9°C° 0.6 mm 2 mps 740 mmHg 96%
08:00 +10°C° 0.6 mm 2 mps 740 mmHg 96%
09:00 +10°C° 0.6 mm 2 mps 740 mmHg 95%
10:00 +11°C° 0.6 mm 1 mps 741 mmHg 95%
11:00 +11°C° 0.6 mm 1 mps 741 mmHg 95%
12:00 +11°C° 0.6 mm 1 mps 741 mmHg 95%
13:00 +11°C° 0.6 mm 1 mps 741 mmHg 95%
14:00 +11°C° 0.5 mm 1 mps 741 mmHg 96%
15:00 +10°C° 0.5 mm 1 mps 741 mmHg 96%
16:00 +10°C° 0.5 mm 1 mps 741 mmHg 96%
17:00 +10°C° 0.5 mm 1 mps 742 mmHg 96%
18:00 +10°C° 0.5 mm 1 mps 742 mmHg 95%
19:00 +10°C° 0.5 mm 1 mps 743 mmHg 95%
20:00 +10°C° 0 mm 1 mps 743 mmHg 94%
21:00 +10°C° 0 mm 1 mps 743 mmHg 93%
22:00 +9°C° 0 mm 1 mps 744 mmHg 92%
23:00 +8°C° 0 mm 2 mps 744 mmHg 92%

Day after tomorrow, 28 October, Wednesday

Time Temperature Precipitation Wind Pressure Humidity
00:00 +7°C° 0 mm 2 mps 744 mmHg 91%
01:00 +7°C° 0 mm 2 mps 744 mmHg 91%
02:00 +7°C° 0 mm 2 mps 744 mmHg 90%
03:00 +7°C° 0 mm 2 mps 744 mmHg 90%
04:00 +5°C° 0 mm 3 mps 744 mmHg 89%
05:00 +5°C° 0 mm 3 mps 744 mmHg 88%
06:00 +5°C° 0 mm 3 mps 744 mmHg 88%
07:00 +5°C° 0 mm 3 mps 744 mmHg 87%
08:00 +8°C° 0 mm 3 mps 744 mmHg 80%
09:00 +8°C° 0 mm 4 mps 744 mmHg 74%
10:00 +11°C° 0 mm 4 mps 744 mmHg 67%
11:00 +12°C° 0 mm 4 mps 744 mmHg 63%
12:00 +13°C° 0 mm 4 mps 744 mmHg 58%
13:00 +14°C° 0 mm 4 mps 744 mmHg 54%
14:00 +13°C° 0 mm 4 mps 744 mmHg 58%
15:00 +13°C° 0 mm 3 mps 744 mmHg 62%
16:00 +12°C° 0 mm 3 mps 744 mmHg 66%
17:00 +11°C° 0 mm 3 mps 744 mmHg 68%
18:00 +11°C° 0 mm 4 mps 744 mmHg 71%
19:00 +10°C° 0 mm 4 mps 745 mmHg 73%
20:00 +10°C° 0 mm 4 mps 745 mmHg 74%
21:00 +10°C° 0 mm 4 mps 745 mmHg 76%
22:00 +8°C° 0 mm 4 mps 745 mmHg 77%
23:00 +8°C° 0 mm 4 mps 745 mmHg 77%

29 October, Thursday

Time Temperature Precipitation Wind Pressure Humidity
00:00 +8°C° 0 mm 4 mps 745 mmHg 78%
01:00 +9°C° 0 mm 3 mps 745 mmHg 79%
02:00 +8°C° 0 mm 4 mps 745 mmHg 77%
03:00 +10°C° 0 mm 4 mps 745 mmHg 75%
04:00 +10°C° 0 mm 4 mps 745 mmHg 74%
05:00 +9°C° 0 mm 5 mps 745 mmHg 74%
06:00 +9°C° 0 mm 5 mps 745 mmHg 74%
07:00 +10°C° 0 mm 5 mps 745 mmHg 74%
08:00 +10°C° 0 mm 6 mps 745 mmHg 72%
09:00 +11°C° 0 mm 6 mps 746 mmHg 70%
10:00 +12°C° 0 mm 7 mps 746 mmHg 68%
11:00 +13°C° 0 mm 6 mps 746 mmHg 66%
12:00 +14°C° 0 mm 6 mps 746 mmHg 64%
13:00 +14°C° 0 mm 6 mps 746 mmHg 62%
14:00 +13°C° 0 mm 5 mps 747 mmHg 65%
15:00 +12°C° 0 mm 4 mps 747 mmHg 69%
16:00 +12°C° 0 mm 3 mps 747 mmHg 73%
17:00 +11°C° 0 mm 3 mps 748 mmHg 73%
18:00 +10°C° 0 mm 3 mps 748 mmHg 74%
19:00 +10°C° 0 mm 3 mps 748 mmHg 75%
20:00 +10°C° 0 mm 3 mps 749 mmHg 77%
21:00 +8°C° 0 mm 4 mps 749 mmHg 79%
22:00 +8°C° 0 mm 4 mps 749 mmHg 82%
23:00 +8°C° 0 mm 4 mps 749 mmHg 81%

30 October, Friday

Time Temperature Precipitation Wind Pressure Humidity
00:00 +8°C° 0 mm 4 mps 749 mmHg 81%
01:00 +8°C° 0 mm 5 mps 749 mmHg 81%
02:00 +8°C° 0 mm 5 mps 749 mmHg 81%
03:00 +8°C° 0 mm 5 mps 749 mmHg 81%
04:00 +9°C° 0 mm 5 mps 749 mmHg 81%
05:00 +9°C° 0 mm 5 mps 749 mmHg 80%
06:00 +10°C° 0 mm 4 mps 749 mmHg 79%
07:00 +11°C° 0 mm 4 mps 749 mmHg 78%
08:00 +11°C° 0 mm 4 mps 749 mmHg 77%
09:00 +12°C° 0 mm 4 mps 749 mmHg 77%
10:00 +13°C° 0 mm 4 mps 750 mmHg 76%
11:00 +13°C° 0 mm 4 mps 750 mmHg 73%
12:00 +14°C° 0 mm 4 mps 749 mmHg 71%
13:00 +15°C° 0 mm 5 mps 749 mmHg 68%
14:00 +15°C° 0 mm 4 mps 749 mmHg 70%
15:00 +14°C° 0 mm 4 mps 749 mmHg 72%
16:00 +14°C° 0 mm 4 mps 749 mmHg 74%
17:00 +13°C° 0 mm 4 mps 749 mmHg 75%
18:00 +13°C° 0 mm 4 mps 749 mmHg 75%
19:00 +12°C° 0 mm 3 mps 750 mmHg 75%
20:00 +12°C° 0 mm 3 mps 750 mmHg 75%
21:00 +11°C° 0 mm 3 mps 750 mmHg 75%
22:00 +12°C° 0 mm 2 mps 750 mmHg 75%
23:00 +12°C° 0 mm 2 mps 750 mmHg 77%

31 October, Saturday

Time Temperature Precipitation Wind Pressure Humidity
00:00 +10°C° 0 mm 2 mps 750 mmHg 78%
01:00 +10°C° 0 mm 2 mps 750 mmHg 80%
02:00 +10°C° 0 mm 2 mps 749 mmHg 80%
03:00 +9°C° 0 mm 2 mps 749 mmHg 81%
04:00 +9°C° 0 mm 2 mps 749 mmHg 82%
05:00 +9°C° 0 mm 2 mps 749 mmHg 81%
06:00 +9°C° 0 mm 2 mps 749 mmHg 81%
07:00 +9°C° 0 mm 3 mps 749 mmHg 81%
Show more